Terminal Aerodrome Forecast
Issued by NWS Pocatello, ID

Home | Current Version | Previous Version | Text Only | Print | Product List | Glossary On
Versions: 1 2 3 4 5 6 7 8 9 10 11 12 13
000
FTUS45 KPIH 302300
TAFIDA
TAF
KIDA 302321Z 3100/3124 21009KT P6SM SKC
     FM310300 VRB05KT P6SM SCT250
     FM311700 21012G23KT P6SM BKN200
     FM312000 23023G33KT P6SM BKN150=

USA.gov is the U.S. government's official web portal to all federal, state and local government web resources and services.